This demonstration page uses our WeatherBlox Daily Observations layout. Learn more.

Left ArrowRight Arrow

41.86663, -103.66717

Hourly Observations for February 16, 2015

Temp ( °F °C ) Dew Point ( °F °C ) Humidity (%) Winds ( mph kmh ) Pressure ( in mb ) Visibility ( mi km ) Precip ( " mm )
12:53 am 00:53 Mostly Clear 25 -3.9 23 -5 92 92 NW 6 9 30.2 1023 10 16.0934 N/A
1:53 am 01:53 Partly Cloudy 26 -3.3 23 -5 88 88 NW 6 9 30.2 1023 10 16.0934 N/A
2:53 am 02:53 Clear 24 -4.4 22 -5.6 91 91 NW 7 11 30.19 1022 10 16.0934 N/A
3:53 am 03:53 Clear 23 -5 21 -6.1 92 92 NW 8 13 30.18 1022 10 16.0934 N/A
4:53 am 04:53 Clear 23 -5 21 -6.1 92 92 NW 7 11 30.19 1022 10 16.0934 N/A
5:53 am 05:53 Clear 22 -5.6 20 -6.7 92 92 WNW 9 15 30.2 1023 10 16.0934 N/A
6:53 am 06:53 Sunny 22 -5.6 20 -6.7 92 92 WNW 8 13 30.22 1023 10 16.0934 N/A
7:53 am 07:53 Sunny 26 -3.3 23 -5 88 88 W 7 11 30.21 1023 10 16.0934 N/A
8:53 am 08:53 Sunny 31 -0.6 26 -3.3 82 82 WNW 7 11 30.2 1023 10 16.0934 N/A
9:39 am 09:39 Mostly Cloudy 33 0.6 27 -2.8 78 78 NNW 15 24 30.24 1024 10 16.0934 N/A
9:53 am 09:53 Mostly Cloudy 36 2.2 26 -3.3 67 67 N 20 31 30.21 1023 10 16.0934 N/A
10:13 am 10:13 Partly Cloudy 37 2.8 26 -3.3 65 65 NNW 18 30 30.21 1023 10 16.0934 N/A
10:53 am 10:53 Cloudy 36 2.2 24 -4.4 62 62 NW 15 24 30.23 1024 10 16.0934 N/A
11:53 am 11:53 Mostly Cloudy 38 3.3 21 -6.1 51 51 NNW 17 28 30.21 1023 10 16.0934 N/A
12:53 pm 12:53 Mostly Cloudy 39 3.9 18 -7.8 43 43 NNW 17 28 30.19 1022 10 16.0934 N/A
1:53 pm 13:53 Partly Cloudy 40 4.4 18 -7.8 41 41 NNW 25 41 30.17 1022 10 16.0934 N/A
2:53 pm 14:53 Mostly Cloudy 38 3.3 17 -8.3 43 43 NW 21 33 30.19 1022 10 16.0934 N/A
3:53 pm 15:53 Partly Cloudy 37 2.8 19 -7.2 48 48 NNW 23 37 30.19 1023 10 16.0934 N/A
4:53 pm 16:53 Partly Cloudy 34 1.1 23 -5 64 64 NNW 15 24 30.21 1023 10 16.0934 N/A
5:53 pm 17:53 Cloudy with Light Snow 30 -1.1 24 -4.4 79 79 NNW 14 22 30.24 1024 5 8.0467 N/A
6:53 pm 18:53 Cloudy 29 -1.7 21 -6.1 72 72 NW 15 24 30.26 1025 10 16.0934 N/A
7:53 pm 19:53 Cloudy 28 -2.2 23 -5 81 81 NW 15 24 30.24 1024 10 16.0934 N/A
8:53 pm 20:53 Cloudy 28 -2.2 23 -5 81 81 WNW 13 20 30.22 1024 10 16.0934 N/A
9:53 pm 21:53 Cloudy 26 -3.3 19 -7.2 75 75 WNW 9 15 30.22 1023 10 16.0934 N/A
10:53 pm 22:53 Cloudy 27 -2.8 18 -7.8 69 69 WNW 10 17 30.19 1023 10 16.0934 N/A
11:53 pm 23:53 Clear 26 -3.3 20 -6.7 78 78 WNW 10 17 30.17 1022 10 16.0934 N/A

Powered by AerisWeather